RH
34 38 43 36 41 26 25 35 34 31 27 32 40 40 34 33 34 37 45 44 41 42 36 29 36 50 58 61 61 58 59 58 59 65 65 63 67 68 68 66 63 60 59 57
48 50 33 32 42 44 42 44 42 39 35 36 39 41 37 33 47 73 77 86 87 87 82 61 46 58 63 64 65 65 64 58 60 63 64 61 64 67 65 65 62 58 53 52
55 40 42 42 43 43 46 47 44 41 39 38 39 45 38 40 57 61 70 79 82 85 88 88 80 70 74 74 70 68 68 62 60 62 64 62 65 67 68 65 61 55 51 48
50 40 40 47 48 47 55 44 40 47 45 59 37 58 44 35 59 70 82 86 88 86 82 81 85 96 90 83 79 77 74 68 65 65 65 61 62 66 66 63 60 55 48 46
44 40 44 51 47 45 46 40 46 45 54 48 51 53 51 65 69 86 88 86 80 78 77 78 80 87 98 100 89 81 78 73 70 67 64 61 61 61 60 60 59 54 48 44
48 37 36 42 38 42 36 38 50 65 59 68 53 53 55 91 92 84 82 77 75 74 73 73 79 84 90 97 100 100 88 79 74 70 67 63 60 60 60 57 56 53 49 45
50 44 41 37 42 37 37 51 69 67 82 73 57 56 89 86 83 84 84 79 76 73 74 76 78 84 88 94 99 99 100 99 92 78 70 67 63 61 59 57 54 52 50 47
70 68 41 40 40 44 51 52 71 71 69 61 58 65 91 79 70 70 70 73 70 74 74 76 81 86 90 94 98 100 100 100 100 99 92 79 68 64 63 61 58 55 53 50
91 75 55 45 39 40 49 60 43 55 53 72 61 94 68 60 66 68 72 70 75 76 78 79 81 87 92 95 99 100 100 100 100 100 100 100 95 87 74 67 63 60 56 54
94 97 67 47 39 40 44 43 58 67 82 81 67 76 80 77 76 69 77 80 78 75 76 77 83 90 93 96 98 99 100 100 100 100 100 100 100 100 97 89 78 69 64 60
82 89 70 63 55 58 64 68 77 63 62 78 78 77 76 82 81 82 79 78 83 81 83 82 85 90 94 96 98 99 99 99 99 99 99 99 100 99 97 95 92 88 79 71
72 84 92 78 60 75 84 92 92 94 82 91 95 93 80 80 78 74 80 76 76 78 84 85 89 88 89 94 97 98 98 99 98 97 97 97 97 97 97 99 99 93 84 78
55 68 78 20 64 59 86 86 86 87 94 95 95 90 86 88 89 88 88 82 81 77 82 86 89 92 94 95 97 98 98 97 97 96 96 96 96 95 97 98 99 99 99 95
50 90 70 57 82 72 82 89 80 94 99 88 88 94 85 88 90 89 88 90 94 94 93 92 91 94 95 96 96 97 97 96 96 96 95 95 95 96 96 96 97 97 99 99
62 73 76 62 51 48 94 92 82 94 98 99 98 95 95 94 94 95 95 92 91 93 92 92 91 92 94 94 96 96 96 96 95 95 95 95 96 96 96 95 96 97 96 96
63 84 66 76 53 58 96 88 79 76 87 98 99 100 96 94 87 92 94 93 93 90 87 86 82 82 86 87 87 89 84 92 72 85 95 91 93 94 95 95 95 95 96 96
71 88 88 90 65 69 91 99 81 86 86 92 90 100 88 81 79 84 92 92 89 87 89 85 84 85 86 85 71 77 71 67 62 42 64 67 52 47 47 60 76 85 91 94
72 86 88 99 88 100 99 95 88 90 94 92 88 92 95 93 84 82 93 88 86 86 86 85 84 87 82 72 62 65 65 53 58 47 46 48 47 47 44 42 41 47 65 68
64 88 97 98 100 88 92 96 98 95 92 100 100 94 92 91 85 95 90 77 84 87 87 89 84 81 71 64 60 71 60 50 52 51 50 50 50 53 50 49 45 40 42 45
45 59 89 96 97 99 91 95 95 90 95 95 100 100 100 97 95 83 83 74 83 81 83 84 78 72 69 60 63 67 56 57 59 61 59 54 54 56 54 52 51 48 44 45
78 84 97 99 100 92 88 90 95 93 92 93 99 95 100 100 93 82 80 83 84 85 84 78 74 74 68 63 67 61 63 63 63 59 60 56 56 55 57 56 55 54 53 51
98 100 100 99 100 95 91 88 91 88 92 99 99 100 100 91 87 86 84 85 85 86 80 78 80 78 66 66 59 61 65 62 58 66 65 61 58 60 59 62 61 65 66 65
94 98 99 96 96 96 92 91 90 94 94 96 100 97 99 97 92 88 90 90 79 79 80 77 75 73 71 65 61 65 67 68 69 71 67 65 66 67 64 69 74 71 67 68
96 94 98 91 94 91 91 94 98 100 98 95 100 98 95 97 94 92 82 79 79 80 79 72 79 80 69 67 70 72 74 74 76 79 79 78 80 78 77 69 72 80 83 82
96 84 96 86 87 79 85 98 99 97 92 100 86 92 95 93 86 86 86 86 86 85 74 93 74 72 73 77 80 82 78 81 84 86 86 89 87 83 83 85 84 83 85 86
98 95 93 89 86 91 88 88 91 100 95 90 92 90 84 86 90 90 89 86 81 84 87 76 79 80 84 86 86 85 82 86 92 94 88 89 89 92 95 96 95 88 83 78
Wind_Speed
0 3 10 15 10 3 2 3 5 4 3 3 8 9 13 9 6 9 14 18 17 13 10 19 23 30 31 32 35 38 40 39 36 33 29 27 27 25 23 20 19 19 19 19
3 8 11 4 7 7 6 6 9 8 5 6 8 11 11 8 9 13 18 20 21 22 22 20 15 21 30 34 34 35 38 40 39 37 34 28 29 26 23 20 19 19 19 20
6 6 3 7 4 6 8 8 5 9 5 4 4 8 4 7 14 16 20 18 21 23 24 24 22 5 11 22 31 35 37 39 40 38 33 23 25 20 21 22 22 21 20 20
6 6 7 3 5 8 6 10 12 7 0 4 1 5 5 3 9 18 20 21 21 24 23 23 28 26 18 2 11 18 27 33 36 35 33 31 29 18 22 26 23 21 21 20
6 2 3 4 8 8 8 6 7 4 4 1 4 2 5 6 7 19 19 21 22 22 22 23 26 30 34 27 4 12 20 26 30 32 32 31 27 25 20 22 22 21 20 20
7 3 3 7 4 6 1 3 5 4 3 3 8 8 3 5 6 13 17 18 21 22 22 24 33 35 37 38 33 16 5 17 21 27 28 30 29 26 21 19 22 22 21 21
5 4 3 2 2 2 3 5 3 3 1 7 3 5 5 5 11 12 15 17 19 19 21 22 24 33 36 37 36 32 25 14 5 18 24 25 27 25 24 22 23 24 24 24
2 6 0 3 4 3 5 7 5 4 4 4 4 5 3 8 11 13 14 15 18 20 19 20 27 31 33 35 36 36 33 30 19 7 12 17 22 23 22 22 22 23 26 26
5 5 5 3 2 5 1 4 4 5 4 1 4 3 4 7 12 15 16 17 19 19 18 19 27 30 31 34 36 35 34 31 32 26 15 6 10 14 19 21 20 20 21 23
3 7 5 6 3 1 4 2 3 1 4 8 5 4 3 9 14 15 17 17 17 18 19 18 25 28 29 31 32 34 33 31 30 28 29 23 17 6 8 12 16 19 20 21
4 3 3 7 3 4 6 4 5 3 5 9 12 2 6 9 11 12 14 14 15 16 16 15 22 26 28 29 31 31 33 32 33 31 27 25 26 23 19 11 6 10 16 18
2 2 5 6 5 12 7 6 5 2 5 4 4 2 7 6 7 9 10 13 14 14 15 18 21 23 27 28 30 29 30 30 31 30 30 28 24 22 21 21 19 13 7 8
4 3 5 6 3 8 6 6 4 4 5 3 4 1 7 8 7 9 10 11 12 15 15 17 21 24 24 26 27 28 29 29 30 30 29 29 29 26 23 19 16 14 14 9
5 3 6 5 2 0 3 5 4 1 2 5 5 3 10 11 11 9 10 10 8 10 12 13 17 20 24 25 27 28 29 30 28 29 28 27 27 24 23 21 18 15 11 8
3 3 2 3 8 3 3 3 5 3 2 5 3 3 5 9 11 4 7 10 11 11 12 13 12 20 22 25 26 27 27 29 28 25 27 27 24 21 20 19 18 17 15 13
5 3 4 5 2 4 6 6 6 6 2 3 4 2 3 6 9 7 6 10 11 11 12 12 16 18 19 22 23 24 26 25 24 22 21 23 23 21 21 20 18 16 15 13
3 2 2 4 4 6 1 3 4 3 3 3 0 1 7 8 11 10 7 9 11 11 11 12 16 17 18 19 23 23 24 22 22 21 19 22 23 21 21 20 20 19 17 14
3 1 2 3 1 2 1 3 3 5 3 4 3 4 5 7 13 13 5 4 11 13 13 17 19 20 22 24 24 23 20 20 19 17 18 22 23 22 21 20 20 18 18 17
7 2 1 2 1 3 3 2 2 3 3 1 4 6 6 9 9 4 3 8 9 14 20 21 25 26 27 25 25 23 21 22 18 18 20 21 21 21 21 20 19 17 16 17
5 5 2 3 2 4 3 1 2 3 3 3 2 4 4 6 4 4 5 18 19 24 23 26 27 27 26 26 25 23 27 22 18 20 21 23 21 21 23 19 18 17 15 15
4 4 3 2 1 4 4 4 1 3 2 3 2 6 3 3 4 11 21 18 20 22 24 25 24 25 24 25 22 25 21 15 18 21 21 22 20 22 19 19 18 18 18 17
2 2 1 2 3 4 2 2 3 3 3 3 3 3 5 10 13 13 14 16 19 20 22 23 22 23 25 22 25 23 20 24 28 21 22 22 24 20 17 17 18 17 15 16
2 0 1 3 2 1 2 3 2 4 3 4 2 5 6 10 11 12 11 17 19 20 21 21 21 23 22 24 20 20 24 26 23 24 26 25 24 21 18 17 14 13 17 18
4 3 1 4 2 3 4 3 0 1 3 5 7 7 7 10 11 11 14 17 19 20 21 22 21 18 22 20 21 25 25 24 25 24 22 22 20 22 19 21 19 17 18 19
3 4 4 4 3 6 4 3 3 5 8 5 13 12 10 12 12 12 13 17 18 20 22 18 21 21 21 22 23 24 24 25 22 21 21 20 19 21 22 21 20 21 20 19
1 1 1 3 4 4 7 5 7 4 6 12 12 13 16 16 15 18 16 18 20 21 20 21 21 22 24 24 24 25 26 23 22 21 20 19 21 21 20 19 23 20 20 21
Wind_Direction
64 131 214 208 202 212 160 213 254 254 253 277 234 253 268 280 306 295 1 355 346 318 310 273 249 225 213 211 208 207 202 202 199 195 194 196 198 200 205 207 208 208 206 202
53 237 238 187 209 230 261 282 276 289 248 182 282 272 267 259 52 50 23 14 4 358 1 343 287 211 203 202 203 201 201 200 199 199 197 198 199 201 207 206 208 210 210 207
182 229 81 179 186 205 233 230 236 240 315 256 281 291 328 78 67 36 26 17 14 9 1 360 360 315 206 198 197 196 196 199 198 201 196 193 194 200 200 205 208 209 211 211
236 262 256 167 229 186 262 207 236 247 135 256 141 286 303 72 70 29 17 20 12 6 4 6 8 15 20 19 200 196 197 198 198 199 197 195 192 192 203 209 209 210 212 214
249 277 186 187 222 158 238 178 207 214 194 320 217 212 251 13 15 8 18 17 11 8 7 8 10 14 19 27 69 196 200 199 200 200 205 202 202 207 212 214 213 214 215 217
243 295 266 213 209 177 163 124 51 56 101 255 195 168 265 16 349 358 15 14 10 7 7 11 13 16 17 21 30 37 204 204 205 205 209 211 211 210 212 211 213 217 219 220
323 246 283 174 245 234 124 76 307 307 115 233 352 178 58 66 41 31 19 15 11 10 10 11 13 12 13 17 19 24 32 21 266 218 215 218 222 220 224 226 221 219 223 226
343 328 312 332 190 220 188 172 183 247 228 269 89 231 103 69 54 36 29 20 16 13 11 12 12 13 10 15 18 20 23 23 30 349 273 243 227 230 235 238 237 235 235 238
356 271 319 301 266 152 141 171 224 257 242 290 200 104 149 70 32 27 20 18 17 12 10 10 11 14 11 14 16 16 17 20 26 29 33 354 284 272 254 243 241 243 246 246
41 291 272 314 346 47 177 236 276 346 275 255 250 171 93 10 9 11 15 14 11 11 9 8 11 10 11 15 16 18 17 18 20 25 35 36 34 8 283 273 266 256 254 249
14 223 292 11 312 18 347 353 355 290 239 262 270 194 33 36 20 12 12 13 9 8 8 5 6 8 10 13 15 15 16 15 17 23 28 34 36 38 38 29 335 278 269 259
305 262 280 226 325 73 58 45 28 328 307 284 282 92 36 62 48 34 14 7 6 9 7 4 5 6 11 10 10 10 10 13 15 20 26 29 30 33 36 32 25 11 340 285
331 315 327 331 70 45 39 49 24 285 250 255 315 53 37 19 34 31 16 10 4 2 2 0 2 6 3 4 6 7 7 6 10 18 23 26 27 28 28 26 26 22 18 3
248 228 186 211 170 212 329 35 357 298 241 316 278 113 11 4 356 12 13 3 359 356 359 357 359 359 3 359 360 360 3 7 7 12 18 20 20 22 24 24 23 23 21 11
71 210 294 300 316 332 97 24 34 97 218 172 315 83 353 348 332 4 14 3 2 0 354 354 350 350 351 356 354 355 355 1 8 6 11 11 11 13 16 20 21 23 24 23
1 294 341 295 285 135 104 29 111 63 11 115 163 150 25 330 339 0 15 0 352 347 345 343 343 342 342 346 344 344 348 354 359 4 5 10 10 8 7 8 9 12 15 21
279 196 75 273 126 134 325 7 46 129 70 312 295 246 358 337 327 316 332 353 339 335 330 336 336 331 335 340 343 338 343 349 354 357 357 1 4 7 8 4 2 2 360 359
233 152 211 245 271 247 120 26 54 98 75 25 0 334 319 304 298 286 165 333 337 333 328 330 325 324 335 339 343 338 343 349 347 353 0 355 351 349 351 352 350 354 350 350
204 213 285 127 160 319 338 323 49 98 273 312 294 311 300 316 322 349 164 342 333 311 310 312 318 326 334 338 341 340 342 345 351 356 349 347 345 339 340 340 342 344 336 337
83 36 130 82 152 237 235 269 10 121 292 268 246 280 290 335 11 258 311 323 310 311 312 315 322 326 329 334 337 337 333 336 346 344 339 335 333 329 329 330 332 332 329 322
357 7 73 15 140 296 250 282 4 89 267 297 261 300 299 302 226 287 306 303 303 304 310 320 319 318 323 329 331 326 324 330 333 326 322 322 320 319 317 318 323 323 319 314
89 62 360 61 52 309 232 351 176 185 289 240 276 265 282 289 296 297 300 302 308 307 313 316 312 310 322 325 327 318 317 322 325 324 322 317 318 318 312 312 313 316 315 313
14 157 267 181 237 229 265 221 241 132 166 292 222 260 259 288 292 297 300 305 310 311 310 311 309 311 316 320 320 316 315 320 318 316 315 316 315 311 309 309 306 303 303 306
15 5 234 14 352 291 304 333 29 190 230 259 246 262 276 279 291 293 304 307 308 310 312 316 315 315 310 314 315 311 313 312 311 306 305 306 305 310 310 310 308 305 305 305
232 338 335 274 323 329 1 240 248 302 296 271 293 280 275 295 305 303 306 306 308 309 311 315 315 311 311 312 309 309 309 310 305 302 303 302 302 302 302 299 296 295 294 288
357 257 60 263 214 191 265 284 302 290 306 311 311 313 316 311 308 310 308 311 313 308 323 317 313 311 310 310 309 309 313 310 304 301 302 300 301 298 296 296 297 295 288 286